Location: Glenbow
(51.1592°N, 114.3828°W)
Time: 06:02:21
(UTC+00:00)

N. Korean satellite - Visible Passes

Search period start: 27 November 2021 00:00
Search period end: 07 December 2021 00:00
Orbit: 447 x 495 km, 97.3° (Epoch: 26 November)

Date Brightness Start Highest point End Pass type
(mag) Time Alt. Az. Time Alt. Az. Time Alt. Az.
27 Nov 6.8 12:53:24 10° NNE 12:56:49 62° E 13:00:10 10° S visible
27 Nov 8.3 14:27:58 10° NNW 14:29:34 13° WNW 14:31:08 10° W visible
28 Nov 9.8 01:06:53 10° SW 01:09:00 15° W 01:11:07 10° NW visible
28 Nov 8.5 12:25:14 10° NE 12:28:16 28° E 12:31:14 10° SSE visible
28 Nov 7.5 13:58:35 10° NNW 14:01:22 23° WNW 14:04:07 10° WSW visible
29 Nov 8.8 00:37:12 10° SSW 00:40:21 29° W 00:43:29 10° NNW visible
29 Nov 9.6 11:57:37 10° NE 11:59:34 14° E 12:01:30 10° SE visible
29 Nov 6.6 13:29:45 10° N 13:33:03 46° WNW 13:36:19 10° SW visible
30 Nov 7.2 00:08:15 10° S 00:11:47 61° WSW 00:15:18 10° NNW visible
30 Nov 6.4 13:01:12 10° NNE 13:04:37 78° ESE 13:08:00 10° S visible
30 Nov 8.4 14:36:26 10° NW 14:37:16 11° WNW 14:38:06 10° WNW visible
01 Dec 9.9 01:15:22 10° WSW 01:16:53 12° W 01:18:24 10° WNW visible
01 Dec 8.0 12:32:54 10° NNE 12:36:04 35° E 12:39:11 10° SSE visible
01 Dec 7.8 14:06:33 10° NNW 14:09:05 20° WNW 14:11:34 10° WSW visible
02 Dec 9.2 00:45:15 10° SSW 00:48:10 24° W 00:51:04 10° NW visible
02 Dec 9.3 12:05:02 10° NE 12:07:23 17° E 12:09:43 10° SE visible
02 Dec 6.9 13:37:34 10° N 13:40:46 38° WNW 13:43:55 10° SW visible
03 Dec 7.7 00:16:07 10° S 00:19:33 48° W 00:22:58 10° NNW visible
03 Dec 6.2 13:08:55 10° NNE 13:12:21 84° WNW 13:15:43 10° SSW visible
04 Dec 7.6 12:40:32 10° NNE 12:43:48 43° E 12:47:02 10° S visible
04 Dec 8.0 14:14:29 10° NNW 14:16:42 17° WNW 14:18:55 10° WSW visible
05 Dec 9.5 00:53:18 10° SW 00:55:56 20° W 00:58:33 10° NW visible
05 Dec 9.0 12:12:29 10° NE 12:15:08 21° E 12:17:45 10° SE visible
05 Dec 7.1 13:45:21 10° N 13:48:24 31° WNW 13:51:26 10° SW visible
06 Dec 8.1 00:23:56 10° S 00:27:15 39° W 00:30:33 10° NNW visible
06 Dec 10.0 11:45:45 10° ENE 11:46:21 10° E 11:46:56 10° E visible
06 Dec 6.2 13:16:36 10° N 13:19:59 67° WNW 13:23:20 10° SSW visible
